Theta_e
337 333 336 338 338 338 341 342 340 339 338 338 339 336 334 335 336 338 339 338 337 336 335 335 336 337 337 337 337 337 337 337 336 335 335 334 334 334 334 335 334 334 334 335 335 333 333 332 332 333 332 332 335 336 335 335 335 335 335 334 332 332 331 330 330 331 332 332 332 332 332 332 332 331 330 330 331 331 331 331 330 330 330 329 327
338 338 338 338 339 341 342 343 341 340 339 338 338 335 331 332 334 338 338 337 336 336 335 335 336 337 337 338 338 337 337 336 336 335 335 334 334 334 334 334 334 335 334 334 334 334 332 332 333 333 331 333 335 336 335 335 336 335 334 334 333 332 332 331 331 331 331 331 331 330 330 330 330 330 330 330 330 330 329 330 330 330 329 329 329
342 342 340 336 337 343 344 343 341 340 338 336 335 332 330 332 334 336 337 337 336 336 336 336 336 336 337 338 337 337 336 335 335 335 334 334 334 334 334 334 334 334 334 334 334 334 333 332 334 333 333 335 336 335 335 335 335 335 333 333 333 332 332 332 332 331 331 331 331 331 330 330 330 329 329 329 329 329 329 329 330 330 329 329 329
342 343 344 338 337 342 341 337 335 334 333 332 331 330 330 333 334 335 337 337 336 336 337 337 336 336 336 337 337 336 336 335 335 334 334 334 334 334 334 334 334 334 334 334 334 334 333 333 334 334 335 336 335 335 335 335 335 335 333 333 333 332 332 332 332 331 330 330 331 332 330 330 331 330 328 328 329 329 329 329 330 329 329 329 329
340 343 344 341 338 336 332 331 331 331 331 332 332 331 332 333 334 335 337 336 336 336 336 336 336 336 336 336 336 335 335 336 336 335 334 334 334 334 334 334 333 333 334 333 334 334 333 334 335 335 335 336 335 335 335 335 335 335 333 333 333 333 332 332 332 331 330 330 331 331 331 331 332 330 328 328 328 329 329 329 329 329 329 329 329
340 340 341 341 335 329 330 331 331 331 332 333 333 333 333 333 335 336 336 336 336 336 336 336 336 335 336 335 335 335 335 336 336 335 334 334 334 333 333 333 332 333 333 333 333 334 333 334 335 335 336 336 335 335 335 335 335 334 333 333 333 333 333 332 332 331 331 331 330 331 332 333 331 329 330 329 328 328 329 329 329 329 329 329 329
338 338 339 337 330 329 331 331 331 332 333 334 335 334 333 334 336 336 336 336 336 336 336 336 336 335 335 335 334 335 335 335 335 334 333 333 333 333 333 333 333 333 333 332 333 333 334 334 334 334 336 336 335 335 334 334 335 334 333 334 333 333 333 332 332 332 332 332 331 331 331 329 329 329 330 329 329 329 328 328 329 329 329 328 328
336 337 339 335 330 331 331 330 332 333 334 334 334 334 335 336 336 336 337 337 336 336 336 336 336 335 335 335 334 335 335 334 334 334 333 333 333 333 333 333 333 333 332 333 333 333 334 334 334 335 336 335 335 335 334 334 334 333 334 333 333 332 333 332 332 331 331 332 331 331 330 328 329 329 328 328 329 329 328 328 328 328 328 328 328
336 338 337 333 332 332 330 331 332 333 335 334 333 335 336 336 337 337 337 338 337 336 336 336 336 335 335 335 335 335 335 334 333 333 333 332 332 333 333 333 333 333 333 333 333 333 334 334 334 335 335 335 335 335 334 333 333 333 333 333 332 333 333 332 333 332 331 331 331 331 331 330 330 329 328 328 327 328 329 328 327 327 327 328 327
333 333 333 332 332 331 331 331 332 333 335 333 334 336 337 337 337 337 337 337 337 336 336 335 335 335 334 335 335 334 334 334 334 334 333 331 331 332 332 332 333 332 332 333 333 333 334 334 334 333 334 333 333 334 334 333 333 333 333 333 333 332 332 332 332 332 331 331 331 331 331 331 331 330 328 328 327 328 328 327 327 327 326 327 327
333 332 331 331 331 331 331 331 331 333 333 332 334 335 337 337 336 336 336 336 337 336 335 335 334 334 334 334 334 333 334 335 334 333 332 331 331 332 332 332 332 332 332 333 332 333 333 333 333 333 332 332 332 333 333 333 334 333 333 334 333 332 331 331 331 331 331 332 331 330 330 330 330 330 329 328 328 327 327 327 326 326 326 326 326
336 336 331 330 331 331 331 330 330 332 332 331 333 334 336 337 336 334 332 334 335 335 335 335 334 335 334 334 334 332 333 334 333 332 331 331 331 332 332 332 332 331 332 332 332 332 332 332 332 332 331 331 331 332 333 333 333 333 333 334 334 332 331 331 331 331 331 332 331 330 330 329 329 330 329 328 328 327 327 326 326 325 326 326 326
334 334 332 330 331 329 329 330 330 331 331 331 332 333 334 335 335 330 329 334 333 333 334 334 334 335 334 334 333 333 333 333 332 332 330 330 331 332 332 332 332 331 331 331 331 331 331 331 331 331 331 330 330 331 333 333 333 333 334 334 333 332 332 332 331 331 331 331 331 331 330 329 328 329 330 329 329 327 327 326 325 325 325 325 326
332 333 333 332 330 328 328 329 330 330 330 330 331 333 333 333 334 333 333 333 332 332 333 333 334 334 334 334 334 334 334 333 332 331 330 331 331 332 332 332 332 331 331 331 330 330 330 330 330 330 331 330 329 330 332 333 333 334 334 333 333 333 333 332 331 331 331 331 331 330 330 329 328 329 330 330 329 327 327 325 324 325 324 324 325
332 333 333 331 328 328 328 329 330 330 329 329 330 331 332 333 332 333 333 332 332 333 333 333 334 334 334 334 333 334 334 332 332 331 330 331 331 331 332 331 331 330 330 330 330 329 329 330 330 330 330 330 329 329 331 332 332 333 333 333 333 333 333 332 331 331 331 331 330 330 331 330 329 328 329 330 328 327 326 325 324 324 324 324 323
330 332 331 329 328 328 329 330 330 329 329 329 330 331 332 332 332 332 333 333 334 334 334 334 334 334 334 334 334 334 333 332 332 331 331 331 331 330 330 330 331 329 329 330 330 329 329 330 330 330 330 330 329 329 330 330 331 332 332 333 333 333 333 331 330 331 332 331 329 330 330 330 329 328 328 329 329 327 326 325 324 323 324 324 323
329 331 331 329 328 329 329 328 328 328 329 329 331 331 332 332 332 332 332 333 334 334 334 334 334 334 334 335 335 334 333 332 331 330 331 331 330 329 329 329 329 330 330 330 329 329 329 330 330 330 330 330 329 329 329 329 330 330 331 332 332 332 332 331 330 331 332 330 329 329 329 329 329 329 328 328 329 328 326 325 324 323 323 323 324
329 330 330 329 328 328 327 327 327 327 328 329 330 331 331 332 332 331 332 333 333 334 334 334 334 334 334 334 335 334 333 332 330 330 331 331 329 329 329 328 328 329 329 329 330 329 329 329 329 329 330 329 329 329 329 329 329 329 330 331 331 331 332 331 330 331 331 330 330 330 329 328 329 329 328 328 328 328 326 324 324 323 322 321 321
329 329 329 328 327 327 327 327 327 327 327 328 327 329 330 332 332 331 331 332 333 333 333 333 333 333 333 334 334 334 333 331 330 330 331 330 329 329 329 329 328 328 329 329 329 328 328 328 328 329 329 328 329 328 327 328 328 329 329 329 330 331 331 331 330 331 331 330 330 329 328 328 328 328 328 328 328 327 326 325 324 323 323 321 318
329 328 328 328 327 327 327 326 326 326 326 327 326 327 328 330 330 330 331 332 332 332 333 333 333 333 333 333 334 333 331 330 330 331 331 330 329 329 328 328 329 329 329 328 328 328 328 327 326 328 328 327 328 327 326 327 327 327 328 328 329 330 331 331 331 332 331 329 329 328 328 328 328 327 327 327 327 326 325 324 324 323 322 320 318
327 326 326 326 326 327 328 326 326 326 327 327 326 326 327 328 327 328 330 331 330 331 332 333 333 332 332 333 333 332 330 330 331 331 331 329 329 328 328 329 329 329 328 328 327 327 327 325 325 326 327 327 326 326 326 325 326 327 326 327 328 328 329 329 330 331 331 330 329 328 327 327 327 327 327 327 326 325 324 324 323 322 321 319 318
323 322 321 322 322 324 326 327 326 326 326 327 327 325 325 326 326 326 328 329 330 331 332 332 333 333 333 333 333 331 330 330 331 330 330 329 328 328 328 329 329 329 328 327 327 327 326 324 323 324 326 326 325 325 325 324 325 326 325 325 326 327 327 328 328 330 330 330 330 329 328 327 327 326 326 325 324 323 323 322 320 320 320 319 318
319 318 318 318 318 319 320 323 324 324 324 325 326 326 326 325 325 326 328 328 329 331 332 332 333 332 332 333 333 331 329 330 331 330 329 329 329 329 328 329 329 328 327 327 327 326 325 323 321 322 324 325 324 324 324 324 323 324 324 323 324 325 326 327 327 328 329 329 330 329 328 328 327 326 324 324 323 322 321 319 318 319 319 318 317
317 316 316 316 316 316 317 318 320 321 322 322 323 325 325 325 325 326 328 328 328 330 331 333 332 329 329 332 333 330 330 331 331 329 329 329 329 329 328 328 327 326 327 327 327 326 325 322 320 321 324 325 324 324 323 323 322 322 322 323 324 325 325 325 326 328 329 329 329 330 329 327 327 325 324 323 322 321 320 319 318 319 319 318 316
315 314 314 314 314 315 315 315 316 318 319 319 320 322 323 325 326 326 326 327 327 329 330 331 329 326 327 331 332 331 331 331 330 329 329 329 329 329 328 327 326 326 327 327 326 326 325 322 320 321 323 324 324 323 323 322 322 321 321 322 324 324 324 324 325 326 328 328 329 329 328 326 325 324 323 322 321 320 320 319 318 319 318 318 317
314 313 313 313 313 313 313 313 314 315 316 317 317 318 320 322 325 326 326 326 327 328 328 328 329 327 328 330 331 332 331 330 329 329 329 329 328 328 328 327 326 325 326 326 324 325 324 322 320 320 322 323 323 322 323 322 321 320 320 321 322 322 323 324 324 325 326 327 327 327 325 324 324 322 322 321 320 320 320 319 319 318 318 318 319
312 311 311 311 311 311 311 312 312 313 314 315 315 315 316 318 321 324 325 326 327 328 328 329 330 329 329 329 331 332 330 328 328 329 329 329 328 328 328 328 326 326 326 325 325 325 324 321 320 319 320 322 322 322 322 321 320 320 319 320 320 321 322 324 324 324 325 325 325 324 324 323 322 321 321 320 319 320 320 320 319 319 319 319 319
310 309 309 309 309 310 310 311 311 312 312 313 313 313 314 315 318 321 324 326 327 327 328 329 329 328 328 328 330 331 329 327 327 328 328 328 328 328 328 327 327 326 326 325 325 324 323 321 319 319 320 322 322 321 321 320 319 318 317 318 319 320 322 323 323 323 324 324 324 323 322 322 321 321 321 320 320 320 319 319 320 319 319 319 319
308 308 308 308 308 309 310 310 311 311 311 312 312 312 313 314 316 319 322 325 327 327 327 328 328 328 328 328 329 330 328 326 327 328 328 328 328 328 327 327 327 325 324 324 323 323 321 320 318 318 320 321 321 320 320 319 318 318 317 318 319 320 321 322 322 322 323 323 323 322 322 322 321 321 321 320 320 320 320 320 320 319 319 319 319
307 307 307 306 307 307 308 309 310 310 310 310 310 311 311 312 313 315 319 323 327 327 327 327 327 327 328 328 328 328 327 326 327 328 328 328 327 327 326 326 325 324 323 322 322 322 320 319 318 318 319 319 320 319 320 319 318 318 319 319 320 319 319 320 321 321 322 322 322 322 322 322 321 321 320 320 320 320 321 321 320 320 320 320 320
305 306 305 305 306 306 306 307 309 309 309 309 309 309 310 310 310 311 315 320 324 326 327 326 326 327 327 326 326 326 326 326 326 327 328 327 326 325 324 324 323 322 322 321 321 321 320 319 318 318 318 318 319 319 319 320 320 320 319 319 319 319 319 320 320 320 321 321 321 321 321 320 320 320 320 319 319 319 320 320 320 320 320 320 320
304 304 304 304 305 305 304 305 306 308 308 308 308 308 308 309 309 309 311 315 319 323 324 325 326 326 325 325 325 325 325 325 325 326 326 325 324 323 323 322 322 321 321 321 321 320 320 319 318 318 317 318 317 318 318 319 320 320 320 320 320 320 319 319 320 320 321 321 320 320 320 319 318 318 318 318 317 317 317 318 319 319 320 319 319
303 303 303 304 304 304 303 303 304 305 306 306 307 307 307 307 307 308 309 311 313 317 320 323 325 325 325 325 324 324 324 325 325 325 325 324 323 322 322 322 321 321 321 321 320 320 318 318 318 317 317 317 316 317 317 318 318 319 320 320 320 319 320 320 320 320 321 321 321 320 320 320 320 319 318 318 318 317 317 317 318 318 318 318 318
302 302 302 303 303 303 303 302 303 303 304 304 305 305 305 305 306 307 308 308 309 311 314 318 320 321 323 324 323 323 323 324 324 324 324 324 323 322 322 322 321 321 321 320 319 319 318 317 317 317 317 316 316 316 316 316 317 316 317 318 318 318 319 320 320 321 321 321 321 320 320 321 321 320 321 321 321 320 320 321 321 321 320 320 319
301 301 302 302 302 302 302 302 302 302 303 303 303 303 303 304 304 305 306 307 307 308 309 312 315 316 318 321 322 322 323 323 323 323 323 322 322 322 321 321 320 320 319 318 317 316 316 315 315 316 316 316 315 315 315 315 315 314 314 314 315 317 318 320 320 320 320 321 321 321 321 321 320 321 321 321 321 321 321 321 321 322 321 321 320
301 301 301 301 301 301 301 301 301 301 302 302 302 303 302 303 303 303 304 305 306 306 307 309 311 312 313 315 317 319 321 320 320 321 321 320 320 319 317 318 318 317 316 316 315 314 314 313 313 314 315 315 315 315 315 315 315 315 314 313 313 314 315 318 319 319 319 319 319 319 319 320 320 321 322 322 321 321 321 321 321 321 321 321 320
301 300 300 300 300 300 300 300 300 300 301 301 301 302 302 302 302 302 303 304 304 305 305 306 308 309 311 312 313 314 316 316 316 317 317 317 317 316 315 315 315 314 314 313 313 313 313 313 313 313 313 314 314 314 315 316 317 317 315 314 314 313 312 315 318 319 318 318 318 318 318 319 320 321 321 320 319 319 319 320 320 321 321 320 321
300 299 299 299 299 300 300 300 300 300 300 300 301 301 301 301 301 302 302 303 303 304 304 305 306 307 308 310 312 312 312 313 313 313 314 315 315 315 314 314 315 315 314 313 312 312 311 312 312 311 312 312 311 311 313 315 316 316 316 315 315 313 314 316 317 317 317 317 318 318 318 319 319 319 318 317 317 316 317 317 317 317 317 317 318
300 299 299 299 299 299 299 300 300 300 300 300 300 300 300 300 300 301 301 302 303 303 304 304 305 305 306 308 311 312 311 311 311 311 312 313 314 314 315 315 315 315 314 313 313 313 311 310 309 308 309 309 309 308 309 311 312 313 313 314 314 314 314 315 315 314 314 315 315 316 316 316 316 316 316 315 315 314 314 313 313 312 312 312 312
299 299 299 299 298 298 299 299 299 299 299 299 300 300 300 300 300 300 301 301 302 303 304 304 304 305 305 306 308 310 310 309 310 310 310 311 312 313 314 314 314 314 313 313 313 313 311 309 308 308 308 307 307 307 307 307 308 309 310 311 312 312 311 310 310 310 311 311 311 311 312 311 312 312 312 311 311 310 310 310 309 308 307 306 305
299 299 298 298 298 298 298 298 298 298 299 299 299 299 299 299 300 300 300 301 302 303 304 304 304 304 305 305 306 307 308 308 309 310 310 311 311 312 312 313 313 312 312 311 310 310 309 307 306 306 305 304 303 303 302 303 304 305 306 307 308 308 308 308 308 307 307 308 309 309 308 308 309 309 309 309 309 309 308 307 305 304 302 300 299
299 299 299 298 298 298 298 298 298 297 298 298 299 299 299 299 299 299 300 301 302 303 303 303 304 304 304 305 305 305 305 306 307 308 308 308 309 309 310 311 311 311 310 309 308 307 306 304 303 303 302 301 300 299 299 299 299 300 300 301 302 302 301 303 304 304 304 305 307 307 307 307 308 308 307 307 307 306 304 302 300 298 297 297 298
299 299 299 298 298 298 298 298 298 298 298 298 298 299 299 300 300 300 300 300 301 302 302 302 303 303 303 303 304 304 305 305 305 306 306 306 306 306 306 306 307 307 307 306 306 305 305 304 303 302 302 301 301 300 299 299 299 299 298 299 299 298 298 298 299 300 301 301 302 303 303 303 303 302 302 301 300 300 299 298 297 297 297 298 299
298 298 298 298 298 298 298 299 299 298 298 298 299 299 299 300 300 300 300 300 301 301 301 301 302 302 302 302 303 303 304 304 304 305 305 306 306 305 305 305 305 306 306 306 305 305 305 305 303 302 301 301 301 301 300 299 299 299 299 299 299 299 299 299 298 299 300 300 299 299 299 299 298 298 298 299 301 301 301 301 301 301 301 302 302
299 299 298 298 298 299 299 299 300 299 299 299 299 299 299 300 300 300 300 300 300 301 301 301 300 300 301 302 303 303 303 303 303 304 304 304 304 305 305 305 305 305 305 305 305 305 306 305 303 301 301 301 301 301 299 298 297 297 298 299 299 299 300 299 299 300 300 299 298 298 297 298 299 300 301 302 303 304 304 304 304 304 304 304 304
299 299 299 299 299 299 299 299 300 300 300 300 300 300 300 300 300 300 299 299 300 300 301 301 301 300 300 300 301 302 303 303 303 302 302 303 304 304 304 304 304 304 304 304 304 304 304 304 303 301 300 300 301 300 298 297 296 297 297 298 299 299 299 299 299 299 298 298 299 299 300 301 302 302 303 303 303 303 303 304 304 304 304 304 305
299 299 299 299 299 299 300 300 300 300 300 300 300 300 300 300 300 300 300 299 299 299 300 301 301 301 301 300 298 299 300 301 300 300 299 299 301 303 304 303 303 303 303 303 303 302 302 302 301 300 300 300 300 299 298 297 296 297 297 297 297 298 298 298 297 297 298 300 301 302 302 302 303 303 303 303 302 302 302 302 302 302 303 303 304
299 299 299 299 299 299 299 299 299 299 299 300 300 300 300 300 300 300 300 299 298 299 300 301 301 301 301 301 299 298 298 298 298 298 297 297 298 299 301 301 301 301 301 303 303 301 301 301 300 300 299 299 298 298 297 297 297 297 297 298 297 297 298 297 297 298 299 301 301 302 302 302 302 302 302 302 302 302 302 301 301 302 302 303 303
299 299 299 299 299 299 299 299 299 299 299 299 299 299 300 300 300 300 300 300 299 299 300 300 301 301 301 301 300 299 298 298 298 298 297 297 297 297 298 298 298 298 299 301 301 301 300 300 300 300 299 298 297 297 297 297 297 298 298 298 298 298 298 298 298 299 300 301 301 301 301 301 301 301 301 301 301 301 301 301 301 302 302 302 303
299 299 299 299 299 299 299 299 299 299 299 299 299 299 299 299 299 299 300 300 300 299 300 300 300 301 301 301 301 300 300 299 298 298 298 297 297 297 297 297 297 297 297 298 299 299 298 298 298 298 297 297 297 297 297 297 298 298 298 298 299 299 299 299 299 300 301 301 300 300 300 300 300 300 300 300 300 300 300 300 300 300 301 301 301
299 299 299 299 299 299 299 299 299 299 299 299 299 299 299 299 299 299 299 299 299 300 300 300 300 300 300 300 301 301 301 300 299 298 298 298 297 297 297 296 297 297 296 296 297 297 297 297 297 297 297 296 297 297 297 298 298 298 298 299 299 299 299 299 300 300 300 300 299 299 299 299 299 299 299 299 299 299 299 299 298 298 298 299 299
Wind_Speed
7 11 12 15 19 20 23 27 26 25 23 23 22 18 17 18 20 24 26 28 27 25 23 22 22 24 23 23 23 22 20 20 20 20 19 18 18 19 18 18 18 16 15 15 15 14 11 9 11 11 11 13 11 10 10 10 12 13 13 13 15 18 18 19 21 25 24 18 16 14 13 12 10 11 10 10 9 9 9 10 12 12 12 12 11
5 8 10 14 20 24 27 26 27 27 22 22 18 9 10 9 12 20 28 29 26 25 24 24 24 25 25 24 23 22 22 21 21 21 19 19 19 18 18 17 17 16 15 15 14 13 11 11 13 14 14 13 11 10 10 12 13 13 15 15 15 19 20 22 24 21 18 17 16 13 9 9 9 10 10 8 8 8 10 10 12 12 12 12 11
5 7 8 11 15 22 26 23 22 21 15 15 12 12 16 8 8 19 29 29 26 24 24 25 25 25 24 24 23 22 21 20 20 20 19 20 20 19 18 17 18 17 15 15 14 13 12 13 15 16 14 12 11 11 12 13 14 13 15 16 17 18 19 23 20 13 15 20 16 8 4 4 4 6 8 7 8 8 9 11 11 12 12 11 11
8 7 7 10 11 17 20 18 19 20 22 20 13 9 11 11 15 25 28 27 26 25 23 23 23 23 22 22 22 21 19 18 18 18 18 19 21 20 19 18 17 17 16 15 14 13 13 13 15 15 14 12 11 12 13 14 14 13 14 15 18 19 18 19 14 12 20 20 10 4 3 3 1 3 7 7 9 10 10 11 11 12 12 11 11
11 9 8 9 10 21 27 27 25 23 22 18 13 12 13 15 21 25 26 25 25 25 24 23 23 23 22 20 20 19 18 18 17 18 19 20 21 20 19 18 17 16 15 14 14 14 13 12 13 14 14 12 12 14 14 14 14 14 14 14 16 17 18 17 13 15 20 14 7 7 5 1 1 5 8 6 6 9 10 11 12 12 12 11 11
12 11 10 9 15 25 29 29 26 25 24 22 20 22 22 22 24 26 27 27 26 27 27 25 25 26 25 24 23 21 20 21 22 22 23 22 21 20 19 17 16 15 15 14 15 15 13 12 12 14 15 12 13 14 14 14 14 14 13 13 15 16 18 17 15 18 16 8 9 9 4 5 9 9 5 3 5 8 8 9 11 11 11 11 12
9 10 11 13 18 22 24 27 29 28 29 30 28 28 28 27 27 27 28 28 28 30 30 29 29 28 28 28 27 26 24 24 25 24 24 22 20 20 19 17 16 16 15 15 15 16 15 13 12 14 15 14 13 14 14 14 14 14 14 13 15 16 18 18 17 19 15 8 8 6 4 12 20 13 6 4 4 5 7 9 9 9 9 10 10
8 7 10 13 17 21 23 25 29 31 32 33 33 32 32 31 30 28 27 27 28 30 31 31 31 31 29 28 27 27 26 24 24 23 22 20 19 20 19 18 17 16 15 16 16 17 17 14 12 14 15 15 14 13 14 14 13 14 13 13 14 16 17 18 18 18 16 11 9 7 9 17 19 12 14 13 6 3 5 6 8 9 9 8 8
5 7 11 12 13 19 23 25 29 33 34 34 36 36 34 32 30 29 28 29 31 31 33 34 33 32 30 28 27 26 24 22 22 22 21 20 20 20 20 19 18 16 16 17 17 17 16 14 13 13 14 15 14 14 15 14 13 14 14 13 14 15 16 17 17 17 16 14 12 14 16 17 14 12 17 17 10 6 4 3 7 9 8 8 8
14 13 8 11 15 18 23 26 28 31 32 34 38 38 35 33 30 29 30 31 33 33 35 36 35 33 32 30 28 26 22 20 21 20 21 21 20 21 21 19 18 17 17 18 17 16 15 15 14 13 13 14 13 14 16 14 14 16 15 13 14 15 16 17 18 16 15 14 14 17 18 16 14 11 14 16 11 8 6 6 9 9 7 8 9
11 9 8 7 14 20 23 24 24 26 28 34 39 39 38 36 34 31 29 31 35 37 39 39 38 36 35 33 30 27 24 22 21 20 21 21 21 23 21 18 19 20 18 18 17 16 16 16 15 13 13 14 13 14 17 15 14 16 15 13 14 15 16 17 17 16 16 15 13 15 17 18 15 12 16 19 14 9 8 7 9 11 10 11 12
9 9 3 2 6 12 14 16 19 21 24 29 34 38 39 40 38 32 28 35 38 37 39 40 40 40 37 34 32 29 27 25 23 22 21 22 23 23 20 19 22 21 19 19 18 17 17 16 16 15 13 12 13 14 16 16 14 14 15 14 13 13 14 17 17 16 16 16 13 13 15 16 15 15 20 21 17 18 15 9 10 13 9 10 15
7 8 6 2 2 5 7 9 12 16 21 24 27 32 35 35 36 36 33 33 27 20 21 25 29 34 33 31 30 29 28 26 25 24 22 23 23 21 21 23 24 22 20 19 19 18 17 17 16 16 14 12 12 12 14 15 15 14 14 15 14 13 13 15 16 16 16 15 15 14 14 13 13 17 20 18 20 24 20 12 13 14 10 10 15
6 6 5 4 3 5 6 6 6 6 8 11 11 16 23 20 17 21 23 20 13 5 7 10 16 23 27 28 28 26 26 25 24 24 23 23 22 20 24 26 24 22 21 19 19 19 17 16 15 14 15 12 11 12 13 15 15 14 13 14 15 14 13 13 14 15 15 15 15 14 14 13 14 18 18 17 22 26 22 17 15 11 10 12 13
5 4 4 4 4 5 6 6 7 8 4 4 11 9 10 13 11 3 11 11 7 2 6 6 13 19 21 24 25 23 23 22 22 23 23 22 20 20 24 24 21 22 21 18 18 17 16 15 14 14 15 13 12 12 12 13 14 13 13 14 15 14 13 13 14 15 14 14 15 15 14 14 14 16 17 18 24 26 25 24 20 11 7 8 9
5 4 4 5 7 8 8 9 9 7 9 7 4 10 9 11 10 5 7 9 6 2 1 6 12 16 16 18 22 22 20 20 20 21 21 21 20 20 21 21 21 21 21 19 18 17 17 16 15 15 15 14 13 12 12 13 13 12 14 15 14 13 12 11 13 15 14 13 14 14 14 15 14 14 16 20 23 24 24 26 24 18 10 6 5
5 4 3 5 7 10 11 12 12 6 3 8 10 12 12 13 15 12 8 10 8 6 8 11 12 14 14 15 18 19 18 19 20 20 19 20 20 19 20 21 21 21 22 21 19 18 17 16 16 15 14 14 14 13 12 12 11 11 13 15 14 14 12 10 13 15 14 13 14 14 14 15 15 13 14 18 20 20 22 25 25 23 18 10 4
5 4 4 4 5 8 11 12 13 10 6 5 0 10 13 11 14 12 7 6 7 8 11 13 12 13 15 15 16 18 18 18 21 20 18 20 20 19 21 21 21 22 22 21 19 18 16 15 16 14 13 14 14 13 13 12 11 11 13 13 13 14 13 11 12 14 14 14 14 14 13 15 16 14 13 15 17 18 22 24 23 23 20 14 10
7 5 4 4 6 8 9 8 11 11 9 10 12 11 9 5 4 6 3 1 5 5 8 10 11 15 19 18 17 18 18 19 20 18 18 21 20 19 20 21 21 22 22 20 18 17 17 18 16 14 13 14 14 13 13 12 11 12 13 12 12 13 13 12 12 12 13 14 14 13 13 14 15 15 14 15 17 18 21 23 22 20 18 17 20
7 7 5 5 7 9 7 6 9 11 11 11 14 16 14 10 5 1 1 1 3 4 7 10 14 20 21 18 17 17 19 20 18 17 20 23 21 18 20 22 22 22 21 20 18 17 18 17 16 15 14 13 13 14 13 12 12 13 13 13 13 12 12 12 11 12 13 13 13 13 12 13 14 15 16 16 16 18 21 22 19 17 18 20 23
9 9 8 7 9 11 10 10 12 13 14 13 13 14 15 15 10 1 4 6 9 12 16 18 20 23 20 16 17 18 20 20 17 17 21 23 21 19 20 22 22 22 20 19 18 17 16 14 14 16 13 12 14 15 13 12 13 13 12 13 15 13 12 12 11 11 13 12 13 13 12 13 15 15 16 15 15 17 18 17 14 14 21 25 22
11 11 11 11 14 16 15 16 17 17 17 16 13 11 12 14 11 2 7 12 15 17 22 23 23 23 20 17 18 20 21 18 16 18 21 22 22 21 21 22 22 21 19 18 18 17 14 11 13 14 12 12 13 14 13 12 11 12 11 11 13 13 13 14 12 11 14 14 14 14 13 15 15 14 15 15 15 14 13 12 9 10 20 25 21
11 11 11 12 16 18 18 18 17 17 19 19 17 12 7 6 6 5 7 13 18 20 23 23 21 21 19 19 21 22 21 18 17 20 20 20 22 22 21 22 21 20 19 18 17 16 13 12 13 13 12 12 12 12 13 11 10 11 9 7 12 15 15 14 12 13 15 15 15 15 15 15 13 13 14 14 12 10 10 11 10 11 14 17 20
12 12 11 13 16 17 18 18 17 17 19 20 19 14 8 4 2 4 7 10 16 20 22 22 19 18 19 22 23 22 22 20 20 21 21 21 22 22 21 20 20 20 18 17 17 14 13 14 14 13 13 12 12 12 11 11 12 10 7 10 15 17 15 12 12 14 15 15 16 16 16 14 12 13 12 9 6 4 6 11 12 11 12 14 20
14 13 12 13 14 15 16 17 18 18 18 20 21 18 14 10 5 4 8 10 15 18 19 20 19 19 23 25 25 25 24 22 22 22 21 22 23 22 21 18 19 20 17 17 17 14 14 14 14 13 12 12 13 11 10 12 13 9 7 12 16 15 13 13 12 13 14 15 16 16 16 13 12 13 9 5 3 3 4 9 12 11 12 13 16
14 13 11 11 12 14 17 18 19 19 18 18 19 19 17 14 8 6 11 13 15 17 17 18 21 24 26 26 27 29 26 24 24 24 23 23 23 22 21 19 19 19 17 18 18 15 14 13 13 13 11 11 14 12 10 12 12 8 6 10 11 9 11 14 14 14 15 15 15 16 15 12 11 10 7 4 5 7 9 8 7 8 10 11 12
12 11 10 11 12 14 17 18 18 18 18 17 17 18 18 15 11 7 11 13 13 14 15 18 23 26 25 24 28 32 29 24 24 25 26 25 22 21 21 19 19 18 17 19 18 15 15 13 13 14 12 13 15 12 11 14 12 7 7 9 7 5 10 16 16 15 16 15 14 14 13 11 10 8 7 7 8 9 11 11 8 8 10 9 9
12 11 11 12 12 13 15 17 17 17 18 17 18 20 20 17 15 11 10 10 9 9 13 18 21 22 22 25 30 32 30 25 23 25 28 26 23 21 20 20 19 18 18 19 18 16 16 14 13 15 14 14 14 11 12 15 13 9 9 8 7 7 13 18 17 15 16 15 14 13 11 10 9 8 7 7 8 8 10 12 11 10 10 9 7
12 12 12 12 11 12 15 17 18 18 19 18 18 21 22 21 19 16 13 9 5 8 14 18 18 19 21 26 30 29 26 24 25 27 28 26 24 21 20 20 20 18 17 18 16 14 15 15 15 17 16 15 14 13 14 15 13 11 10 8 8 10 13 16 17 16 16 16 16 13 11 10 9 8 7 6 6 6 7 10 10 8 8 9 7
11 11 11 11 11 12 14 16 17 19 19 18 19 21 23 24 23 21 18 11 2 8 14 16 17 20 21 24 26 25 23 22 24 28 28 24 22 21 19 20 20 18 17 18 16 14 16 18 18 19 18 17 16 15 15 14 13 12 11 10 10 10 11 14 16 16 15 17 17 14 12 11 10 9 8 6 5 5 4 7 8 7 6 6 6
10 10 10 10 11 13 14 15 17 18 19 20 20 21 23 25 26 26 23 16 8 2 11 15 14 16 19 22 23 22 22 22 22 25 26 24 22 22 21 20 19 19 19 19 18 18 19 21 21 20 20 19 18 17 16 15 14 13 12 11 11 10 10 12 12 13 14 16 15 12 11 9 8 8 8 7 6 5 4 4 5 6 5 4 3
9 10 10 10 11 13 15 16 16 17 19 21 22 23 25 26 26 27 26 21 18 13 8 12 12 14 20 23 22 22 23 23 20 18 20 24 25 25 24 22 21 22 22 21 21 21 22 22 22 22 21 21 19 17 16 16 15 13 12 12 12 11 11 12 12 12 12 14 13 12 11 9 8 7 6 6 5 4 3 3 3 3 3 3 2
9 9 10 10 11 13 15 17 18 18 18 20 22 25 26 26 26 27 29 27 24 23 18 15 16 17 21 22 21 21 21 21 19 16 19 25 27 26 25 24 24 24 24 24 24 24 23 22 22 22 21 21 19 16 14 15 15 15 14 14 15 14 14 14 14 13 14 15 15 15 15 13 10 9 8 6 5 3 2 2 2 2 3 3 4
9 9 10 10 11 14 16 18 19 19 19 20 22 23 24 27 28 28 30 31 29 27 25 23 20 18 19 21 20 18 17 19 19 19 23 27 28 28 28 27 27 27 26 27 26 25 24 22 21 21 20 19 17 14 12 12 12 13 13 14 15 16 16 16 15 15 16 16 14 13 13 11 8 7 8 7 5 4 4 3 3 3 4 5 6
9 9 10 12 13 15 16 18 19 20 22 23 23 23 24 28 30 31 30 31 31 30 29 27 25 22 20 20 19 19 20 22 22 24 26 28 29 30 29 28 28 28 28 27 25 24 23 21 19 18 17 17 16 13 11 10 10 10 10 10 11 13 14 15 14 14 15 15 13 10 9 7 5 5 5 5 2 2 2 4 5 5 6 6 6
9 10 12 14 16 16 16 18 20 22 25 25 24 23 24 26 29 31 31 31 31 31 31 30 28 25 23 21 21 22 23 24 24 26 28 29 29 29 29 28 29 28 27 26 24 22 22 20 19 17 16 16 15 12 11 11 10 9 8 7 7 9 10 10 11 11 11 11 10 8 5 5 4 4 4 3 2 2 2 3 4 5 6 6 6
12 13 14 17 19 19 18 19 22 25 26 26 24 23 25 27 28 29 30 32 33 31 30 29 28 26 24 23 23 23 24 24 25 27 29 29 29 28 27 28 30 29 26 25 24 22 21 20 18 16 15 15 14 12 11 11 11 10 10 10 9 8 6 5 8 10 9 8 9 7 4 5 6 4 1 1 2 3 3 4 4 5 5 6 6
14 15 16 18 21 22 22 22 23 25 26 25 25 25 26 28 27 26 28 31 32 30 29 28 26 24 24 24 24 24 24 25 25 26 28 29 28 26 24 23 26 27 24 22 22 21 20 18 17 15 14 13 13 11 10 10 10 9 10 12 12 12 12 11 11 12 11 10 10 9 7 6 5 3 1 2 3 4 4 4 5 6 7 7 7
16 16 16 17 20 23 24 24 24 24 24 25 26 27 28 27 26 26 28 29 28 27 26 26 25 24 24 24 24 24 25 26 26 25 26 27 26 25 22 19 20 20 19 18 17 16 16 16 15 14 13 12 12 11 10 9 9 9 10 12 14 16 18 17 15 14 13 12 11 9 8 6 4 3 1 3 4 5 6 7 8 9 10 11 11
16 16 16 18 21 23 24 24 23 22 22 24 26 28 29 27 25 27 28 28 26 24 24 25 25 25 25 24 24 24 24 24 25 25 25 24 24 23 21 20 18 17 16 14 13 13 15 15 14 14 13 13 12 11 11 9 8 8 9 9 10 13 15 15 14 13 12 10 8 7 6 5 3 2 3 5 7 8 9 10 11 11 12 13 14
16 17 18 20 21 23 23 22 23 23 23 24 26 28 28 26 26 26 27 25 24 23 24 24 25 26 26 25 25 24 23 23 22 22 22 21 21 20 19 18 17 16 15 15 14 14 15 16 15 14 15 15 14 13 13 11 10 9 8 6 6 8 9 10 11 12 11 9 7 6 5 4 3 4 5 7 9 10 12 13 14 14 14 14 14
17 18 19 19 20 22 23 23 24 25 24 25 27 28 27 26 26 25 24 24 24 25 25 24 24 25 25 24 24 24 24 23 22 22 23 23 22 20 19 17 16 15 15 16 15 15 17 19 19 18 18 19 18 17 17 16 14 13 11 9 8 8 7 7 8 10 10 8 6 4 4 4 4 5 7 9 11 13 14 15 15 14 13 12 11
17 17 17 17 18 20 21 21 23 25 26 27 29 28 26 25 25 24 23 24 24 25 26 25 25 24 24 22 21 21 21 22 21 20 22 22 21 20 18 17 16 16 17 17 16 17 19 20 20 20 21 20 19 18 18 17 17 15 14 14 12 11 10 8 8 9 8 6 4 3 4 5 6 7 8 9 10 10 10 10 10 9 9 9 8
16 16 16 16 17 18 18 20 21 24 26 28 28 28 27 27 25 24 24 24 24 24 26 27 26 24 23 22 22 22 22 22 21 19 17 17 16 15 14 13 12 13 13 14 14 16 17 19 21 22 21 19 17 15 16 16 15 13 13 13 12 12 10 9 8 8 7 6 6 6 6 5 5 5 5 4 4 5 6 7 8 8 8 9 9
15 16 15 16 16 15 16 17 19 21 23 26 27 27 26 26 25 26 27 26 24 24 25 26 26 25 23 22 22 22 23 23 22 20 18 17 15 15 16 15 13 12 10 10 11 12 13 16 19 21 19 17 14 13 14 14 13 12 11 10 10 9 9 8 8 9 9 9 9 8 6 5 5 6 7 7 8 8 9 10 11 11 12 12 12
14 14 14 14 15 15 15 16 18 19 19 21 24 25 24 23 23 26 27 26 25 25 24 24 24 24 25 24 22 20 20 20 19 18 18 17 16 17 19 20 19 18 18 18 18 18 17 18 19 19 17 15 13 12 12 12 12 12 11 10 9 9 8 8 9 10 10 10 10 9 10 10 10 10 10 10 10 10 11 13 13 13 13 14 13
12 11 12 13 14 14 15 17 19 19 18 17 18 19 21 21 21 22 24 25 25 24 23 23 21 20 21 24 23 21 19 19 19 18 18 17 16 16 18 19 19 19 19 20 22 23 23 21 20 17 15 14 12 11 11 11 11 11 11 10 9 8 8 8 9 10 10 11 12 11 10 10 10 10 10 11 12 13 15 17 17 16 15 15 14
10 9 9 10 11 12 13 15 17 18 19 19 17 15 16 18 19 18 19 21 23 22 21 22 22 19 16 17 20 22 21 21 22 23 22 22 20 18 18 19 18 17 16 16 17 20 20 19 17 14 13 13 12 11 11 11 11 11 11 10 9 8 7 8 10 11 11 11 11 11 11 11 12 13 13 14 15 16 17 18 18 18 17 16 14
9 8 9 9 9 9 10 11 13 15 17 19 19 16 15 15 16 16 15 16 18 18 17 19 20 20 16 12 13 17 20 21 22 24 24 24 22 20 20 20 18 17 14 12 12 14 15 12 11 11 12 12 13 13 13 12 12 12 11 11 11 11 10 9 10 11 12 13 15 17 19 20 19 19 18 18 17 16 16 18 18 18 17 17 16
7 8 9 10 9 9 9 9 8 9 12 16 17 17 16 15 14 14 14 14 13 13 14 15 15 16 15 12 9 9 12 16 19 21 22 22 22 21 21 22 21 19 17 14 13 14 13 10 10 11 12 13 13 13 12 12 12 12 12 13 14 14 13 13 13 13 15 18 21 23 24 24 23 22 22 21 20 18 17 17 18 18 18 17 16
3 5 8 10 10 10 11 11 9 8 8 10 11 12 13 13 13 12 12 12 10 9 10 12 12 11 11 12 11 7 6 10 15 19 20 20 21 20 20 21 20 19 19 18 16 15 14 13 12 13 13 13 13 12 12 12 13 13 14 15 16 16 16 16 16 16 18 20 21 22 23 23 22 22 22 22 21 20 18 17 16 17 18 17 15
Wind_Direction
207 197 193 185 199 204 187 182 181 179 182 181 176 180 181 168 164 166 161 155 149 146 147 149 152 157 164 171 174 175 175 175 179 182 178 177 180 182 185 184 183 185 188 191 196 200 197 195 205 208 208 209 197 182 184 168 154 153 146 140 139 138 142 147 146 138 128 119 118 121 127 135 136 136 146 159 163 170 173 173 173 173 178 175 167
192 187 189 175 183 189 178 170 169 172 179 180 170 126 103 146 178 161 150 146 141 143 150 158 164 167 171 176 177 178 179 178 179 184 182 178 179 181 184 186 185 186 190 194 196 201 203 192 193 210 213 201 186 180 176 163 160 160 151 145 143 143 146 149 148 141 130 127 125 115 109 118 125 124 127 142 154 163 172 170 168 169 173 176 173
184 179 184 175 172 170 168 163 158 159 153 150 142 75 78 128 167 134 136 142 143 149 160 166 169 172 177 180 181 181 183 184 184 185 184 180 178 180 184 186 188 189 190 196 197 197 203 192 188 205 204 187 180 171 165 163 162 161 155 150 147 146 150 154 155 155 143 136 130 124 124 117 115 112 108 125 137 143 161 165 163 162 164 169 171
187 183 181 183 165 138 131 111 88 81 77 89 100 76 87 116 123 125 135 147 151 157 169 176 175 175 183 185 184 183 183 186 185 185 184 181 180 181 184 186 191 192 191 195 196 192 194 189 187 197 191 181 181 170 166 167 163 160 159 157 155 149 153 162 169 172 155 144 134 127 144 149 155 119 97 105 130 139 149 152 155 157 156 160 163
185 180 179 179 128 101 99 93 89 89 92 105 130 147 141 131 130 134 140 149 160 170 178 183 180 179 184 182 180 182 183 184 182 181 182 181 182 184 186 187 189 189 189 190 188 185 183 181 184 186 180 180 182 174 173 173 168 166 164 165 166 159 159 165 170 171 162 157 158 144 137 171 193 143 118 97 121 139 146 147 151 154 149 150 153
185 175 172 150 108 104 108 112 119 126 133 143 148 149 152 150 149 150 150 155 168 178 182 184 185 186 186 181 180 180 182 187 187 184 183 183 183 185 183 182 180 177 177 177 175 174 172 173 181 181 178 179 182 178 176 174 171 170 168 167 170 167 165 163 165 171 170 173 175 170 207 200 163 150 134 88 111 130 142 150 155 156 151 150 148
189 173 152 126 113 115 121 127 134 139 143 146 145 147 153 156 158 160 160 164 173 180 184 185 188 192 191 189 188 184 184 191 195 191 187 185 181 179 176 173 169 163 164 169 167 166 168 175 182 182 179 176 180 179 173 173 172 170 171 169 167 167 168 163 163 171 174 176 179 185 224 175 159 154 150 138 125 125 133 142 152 158 158 154 148
200 164 126 118 126 130 134 138 141 145 148 147 148 151 154 158 163 165 166 171 179 185 186 187 191 193 194 195 193 191 191 192 195 195 190 184 176 173 171 167 162 159 164 169 166 166 172 177 178 179 179 176 178 178 170 172 176 172 171 170 166 166 172 169 165 171 173 164 157 145 150 160 159 158 153 142 126 118 125 128 138 143 148 146 140
17 58 93 108 121 128 135 140 144 150 152 152 152 153 156 162 166 169 174 180 185 187 188 189 193 195 197 198 195 194 196 192 191 194 190 181 174 170 168 162 158 160 166 167 163 166 171 171 169 169 170 172 177 177 171 173 178 174 169 168 167 166 173 175 169 174 174 160 148 139 141 149 151 153 149 138 128 135 132 133 142 139 139 141 138
34 30 55 98 111 121 133 141 149 155 155 154 155 156 160 165 169 175 182 186 188 190 191 191 192 196 198 198 196 195 195 191 189 190 185 178 172 167 165 164 165 164 162 160 158 162 164 163 164 163 164 171 175 172 169 171 173 172 169 169 169 166 172 177 175 179 175 162 156 151 148 147 143 144 147 140 133 130 127 144 154 150 144 144 147
67 43 11 53 108 127 138 145 154 157 156 156 159 163 166 168 171 177 185 191 192 192 194 195 194 195 197 197 195 194 192 188 187 185 181 176 169 165 165 166 167 163 157 158 159 160 160 159 161 161 165 172 173 168 169 172 171 171 171 170 168 167 170 173 176 178 172 163 165 165 162 161 158 159 157 151 145 136 135 145 158 157 152 152 152
101 106 89 23 112 127 136 145 154 162 166 164 166 169 170 173 171 169 186 199 197 195 197 198 195 192 193 195 193 191 190 189 187 182 178 174 168 168 169 161 157 156 153 156 156 155 158 159 162 163 160 160 162 166 172 174 173 173 174 172 168 167 168 170 171 172 170 167 166 167 168 170 175 171 162 160 158 150 146 147 160 159 152 157 158
92 102 114 116 80 87 103 128 152 171 180 178 178 176 175 182 178 171 186 198 194 196 207 206 197 189 188 191 190 189 190 191 188 181 177 173 169 170 169 157 151 152 152 151 152 154 156 157 160 162 156 150 153 162 171 173 173 174 175 171 168 168 171 171 171 171 172 171 165 163 167 169 174 168 161 164 163 152 147 148 158 161 157 160 163
76 79 82 70 50 63 84 102 127 162 191 205 214 193 188 211 213 178 175 181 177 204 258 235 202 187 187 188 188 188 190 192 188 180 174 171 169 165 161 156 154 157 155 150 151 153 153 151 154 156 153 150 149 154 163 169 171 172 171 168 167 173 177 176 176 173 172 172 166 163 164 162 162 163 160 163 162 156 153 155 156 160 159 158 162
56 67 66 55 33 31 42 52 77 99 117 281 306 297 226 246 279 182 149 161 177 285 309 251 199 189 188 188 188 190 192 191 186 179 173 170 169 162 156 156 157 159 157 151 150 151 151 152 152 151 152 151 148 147 154 163 168 170 172 169 168 176 182 181 179 174 169 170 167 162 163 164 162 163 163 163 163 160 160 162 160 154 152 160 164
29 27 29 22 16 15 17 21 38 87 126 158 261 303 278 250 254 227 163 161 151 82 265 202 190 190 190 187 191 193 192 190 186 182 176 174 172 165 160 158 154 155 154 149 147 148 148 149 147 145 149 151 149 146 148 156 162 167 172 171 171 178 182 179 178 176 172 171 169 163 163 165 162 158 160 162 165 167 167 167 166 161 156 160 170
27 22 26 23 20 15 9 10 12 15 111 143 181 231 247 235 228 225 200 173 148 131 163 175 179 187 189 188 192 194 195 193 188 183 180 179 176 168 165 160 154 152 151 148 148 147 145 145 143 144 152 155 152 150 151 156 161 163 166 169 171 177 179 175 176 177 176 172 166 162 161 161 160 155 157 163 168 173 174 174 175 171 165 158 158
34 23 29 31 38 34 20 5 359 348 340 22 343 241 245 237 226 224 216 177 145 138 162 172 175 186 193 195 195 195 197 196 189 183 180 179 176 170 166 160 154 152 150 147 148 147 146 145 143 145 151 152 152 153 152 158 162 155 155 162 166 170 174 174 176 176 177 174 165 161 160 159 158 156 159 168 171 173 178 180 180 179 178 171 155
44 34 29 18 24 41 45 21 3 2 351 353 351 323 302 297 250 236 249 152 118 133 170 180 189 200 203 202 200 197 194 192 190 189 185 181 177 170 164 159 155 154 151 148 147 146 148 147 144 144 150 154 156 155 151 155 158 149 149 155 157 163 168 168 173 176 176 176 169 164 164 160 158 159 161 167 170 173 179 182 182 188 197 185 162
46 43 37 32 27 27 37 38 31 31 20 5 1 355 353 358 3 31 54 171 169 198 209 206 211 214 208 202 200 197 191 189 190 192 187 182 178 169 163 158 155 154 152 150 149 147 148 147 144 147 154 160 158 154 150 152 153 151 152 156 155 157 160 161 169 173 174 176 172 169 171 166 163 165 164 165 169 174 180 184 191 204 204 187 169
39 39 31 28 27 22 26 38 39 32 23 18 17 18 19 13 4 61 175 209 214 217 217 216 218 215 204 196 199 195 189 189 192 188 179 176 175 169 161 158 156 154 153 149 147 147 147 142 145 153 157 156 153 151 151 150 151 156 157 157 159 160 157 158 163 170 173 174 171 171 172 168 168 171 170 169 169 172 182 192 207 212 194 184 177
35 34 30 23 18 17 26 40 40 31 25 23 21 29 35 19 1 309 216 219 221 225 222 219 217 210 197 191 198 193 187 191 193 183 173 171 172 167 161 157 152 149 150 149 149 149 146 139 144 155 156 152 153 150 150 152 156 166 169 168 172 169 159 158 160 165 172 171 167 168 168 168 171 173 170 168 169 175 188 192 184 172 176 180 182
41 36 30 24 19 15 19 28 33 33 30 28 27 34 40 13 337 297 257 226 220 226 227 222 216 206 194 192 196 191 186 190 189 180 175 173 169 162 157 153 147 146 150 153 153 148 142 141 146 152 153 153 152 147 150 156 158 164 170 173 176 170 159 156 158 161 166 166 164 165 165 167 171 172 170 171 176 184 188 177 151 129 146 172 181
40 37 28 22 19 16 14 15 18 25 27 25 25 29 31 20 336 297 295 251 230 230 227 220 212 203 198 194 191 187 186 188 185 181 177 172 167 161 155 151 147 149 152 154 152 147 145 148 148 148 153 155 152 149 150 151 152 153 136 129 144 151 148 147 154 159 162 163 164 163 163 166 172 174 176 178 179 179 176 175 164 136 126 152 173
38 34 26 20 18 15 13 11 11 15 19 21 19 18 17 16 8 296 286 262 241 239 231 218 207 204 203 193 182 182 185 185 184 182 176 169 166 162 156 150 149 153 157 155 152 150 152 152 148 148 155 157 153 155 150 143 151 155 123 124 136 140 141 146 153 156 157 160 162 160 160 166 174 180 185 184 157 105 120 157 165 152 134 142 159
39 34 24 19 17 15 14 11 8 9 12 15 14 12 11 9 357 278 258 248 238 236 232 223 213 206 200 189 179 178 180 183 184 179 172 166 162 157 153 150 153 158 159 152 150 154 153 149 147 149 156 155 152 157 150 144 155 161 129 133 140 139 146 149 147 146 147 149 151 154 159 166 174 182 182 155 126 92 81 102 142 160 155 148 143
38 35 26 21 17 15 15 10 7 8 9 10 9 7 5 1 353 308 267 259 248 232 219 214 208 202 195 185 180 178 177 183 185 175 170 168 161 156 154 154 158 161 158 152 151 153 151 150 153 154 158 159 157 162 156 149 156 161 147 150 149 144 156 154 146 140 143 145 146 150 153 152 159 168 155 128 116 99 82 84 112 145 153 151 134
31 28 24 23 18 13 12 9 7 7 8 8 7 8 7 2 357 343 307 284 266 230 210 206 198 193 190 183 179 177 175 182 182 169 166 167 163 159 158 160 162 160 156 152 148 147 150 155 157 153 153 156 156 159 154 151 154 152 154 164 153 133 144 151 150 144 146 149 149 152 153 151 156 156 142 126 114 105 96 95 108 123 127 130 129
26 23 23 23 20 14 11 10 9 7 6 7 5 7 9 9 6 359 347 327 276 209 207 209 195 187 187 180 176 172 170 179 179 163 160 163 162 160 159 160 161 154 148 147 145 147 151 150 146 144 145 148 146 141 141 146 151 149 152 158 148 132 132 141 145 145 153 158 154 157 163 164 165 157 145 136 116 105 106 110 118 125 123 120 114
22 20 21 21 18 13 10 12 14 9 6 6 5 5 7 9 10 8 5 4 324 197 197 197 191 189 183 170 166 164 164 176 173 157 154 159 160 159 154 151 155 152 148 150 150 145 141 138 136 137 137 135 131 126 127 136 144 148 151 148 143 137 128 129 130 128 138 148 146 146 151 152 155 154 152 156 145 129 123 123 132 143 142 129 112
23 20 20 20 17 10 6 11 17 16 13 11 8 10 12 13 14 13 15 25 35 128 182 182 183 184 171 158 157 158 158 165 162 152 153 157 159 160 154 149 152 151 150 152 147 137 133 133 132 131 128 125 122 117 116 123 132 144 157 157 150 146 138 134 131 125 132 142 139 137 141 143 144 143 147 159 166 171 169 149 143 147 152 153 140
24 20 18 19 17 13 9 7 9 15 19 18 17 19 19 17 17 19 23 35 45 54 115 150 138 142 157 161 158 151 149 151 155 157 155 152 152 153 149 144 143 143 142 141 137 131 130 130 128 126 122 117 115 113 111 114 117 127 142 144 139 140 141 143 141 132 135 145 143 134 130 129 134 137 138 149 167 191 194 175 168 172 185 204 219
27 22 21 20 18 18 16 11 10 14 19 22 24 26 25 23 23 27 31 36 44 50 66 87 94 116 147 162 159 150 145 143 147 152 147 143 142 140 139 138 137 137 136 131 128 127 125 125 125 124 120 116 114 113 112 112 111 115 122 120 112 106 106 113 117 114 120 134 136 126 116 107 113 132 139 139 151 169 180 191 209 221 242 260 268
28 24 18 14 18 26 27 23 22 23 24 27 29 29 30 31 32 35 36 37 42 45 53 66 75 91 124 146 151 145 137 136 140 140 134 132 131 129 131 134 133 132 130 126 124 123 121 120 121 120 118 116 114 113 113 114 112 110 113 112 105 94 85 86 91 94 103 116 122 122 118 103 92 115 132 136 149 167 181 209 234 247 257 265 274
25 26 19 14 19 27 31 30 29 31 33 35 34 31 33 36 37 38 37 38 42 41 44 57 64 67 88 117 131 130 129 134 138 135 126 121 121 123 126 129 128 126 124 122 121 120 118 117 116 118 118 114 111 114 118 119 117 114 113 110 107 97 84 77 81 85 90 98 103 107 117 114 80 72 92 104 119 175 214 231 244 254 259 263 271
24 28 24 24 26 27 34 38 37 38 40 39 38 36 38 39 39 40 40 39 42 41 40 49 56 57 67 89 107 118 125 128 128 125 119 115 116 118 121 124 124 122 119 119 117 116 115 115 114 118 119 112 107 111 119 121 122 123 123 120 115 107 90 75 76 85 88 95 98 95 97 107 91 64 58 59 42 354 299 268 256 258 265 271 274
34 37 35 38 40 38 39 43 43 43 43 41 42 43 43 42 39 40 42 42 41 39 39 45 52 55 63 75 89 101 111 115 115 113 113 113 113 112 113 116 117 115 114 114 112 111 111 113 114 115 117 115 109 106 112 119 122 125 126 123 119 118 119 96 83 90 97 100 101 99 99 107 111 112 108 328 319 306 291 283 273 270 276 281 279
41 44 44 45 48 47 45 45 45 44 43 43 45 47 47 45 41 39 42 44 42 38 38 42 48 54 63 73 80 85 92 99 99 100 106 112 113 112 112 111 109 108 108 109 110 110 107 107 108 107 109 112 107 102 108 113 114 119 123 124 123 124 130 129 113 102 103 103 103 107 110 115 120 118 66 329 318 312 311 317 317 312 311 307 298
47 49 50 50 53 53 50 48 45 43 43 45 47 49 50 46 42 41 43 43 41 39 41 44 47 53 61 72 81 85 86 89 91 92 99 107 110 113 117 118 114 113 112 112 113 112 105 100 101 99 99 102 99 95 97 100 102 104 109 117 125 124 122 121 116 109 103 102 104 106 107 108 110 96 33 331 325 325 324 326 328 325 321 317 311
50 50 53 56 57 55 51 48 46 45 47 48 49 50 50 47 43 43 43 40 39 42 46 49 52 56 59 65 77 85 86 86 89 90 94 101 107 112 115 117 118 121 123 120 120 120 110 99 95 94 91 87 84 81 78 79 83 88 92 101 113 116 112 109 107 104 99 96 96 95 91 86 72 38 331 311 313 315 316 317 319 318 317 314 311
53 53 55 56 56 56 54 52 51 52 53 53 53 52 49 46 44 42 39 38 42 47 52 54 54 57 59 61 67 75 79 80 83 88 92 95 100 104 107 110 113 118 119 114 112 113 108 97 90 88 84 78 74 73 71 69 68 70 75 82 93 98 96 96 97 95 93 94 93 86 76 62 32 350 322 309 308 310 313 315 315 313 311 309 308
54 54 55 55 55 56 56 55 55 57 56 57 58 55 50 46 45 43 42 44 49 53 56 57 57 56 59 62 64 67 72 74 77 83 87 89 91 94 96 99 104 110 112 112 112 111 106 99 91 85 81 78 75 74 73 73 72 73 73 74 79 80 79 92 101 95 89 91 89 69 46 29 357 326 312 306 306 309 311 311 309 308 307 306 307
52 50 51 55 57 57 57 56 57 58 57 57 58 56 51 46 42 42 47 51 53 54 56 57 57 54 54 58 63 66 68 70 71 76 81 84 86 90 93 99 105 108 110 115 120 117 111 105 98 90 85 83 81 79 79 78 78 81 83 82 82 80 78 86 95 90 81 77 62 21 2 350 327 314 311 311 312 315 315 316 317 316 317 319 319
53 51 51 55 58 59 59 59 58 59 58 57 57 56 52 46 40 39 45 48 50 53 55 54 53 52 53 58 64 66 67 69 72 77 82 82 82 86 92 98 105 110 115 122 124 121 117 113 108 101 93 89 86 83 80 76 72 73 79 83 84 83 81 79 80 77 65 45 26 8 352 339 329 329 340 354 1 359 354 350 347 342 340 338 335
55 54 52 53 56 57 57 57 57 57 58 57 55 54 51 46 42 40 41 43 45 48 51 52 51 50 51 56 62 65 66 67 70 76 79 79 79 83 85 87 90 96 106 115 117 123 132 129 119 108 97 92 90 81 70 64 61 58 59 61 65 70 69 63 57 52 43 30 21 18 22 37 55 58 60 60 52 36 21 10 3 359 358 354 348
62 60 54 51 51 47 43 45 47 49 56 59 56 54 50 46 44 42 39 38 40 43 45 49 52 51 48 49 54 58 60 61 62 64 66 67 71 77 80 82 85 87 90 91 88 92 107 119 118 111 102 96 90 79 66 59 57 55 50 47 49 49 45 41 39 38 37 35 36 47 64 73 69 61 52 44 38 34 34 33 31 27 22 15 6
70 68 61 56 54 49 44 44 44 44 49 53 55 57 55 49 46 44 41 37 37 37 38 42 48 52 50 50 54 57 59 61 62 63 65 65 66 71 74 74 75 77 83 86 84 83 91 102 107 105 100 94 86 75 66 59 53 50 44 38 38 39 37 40 46 49 53 56 58 63 65 59 51 50 50 47 48 51 53 51 47 42 36 28 25
74 69 64 62 58 55 54 55 55 53 50 47 47 52 56 53 50 48 47 44 40 38 37 37 40 47 53 57 61 64 67 70 69 69 69 67 64 66 69 68 64 64 70 79 82 82 86 95 99 94 86 81 76 67 62 56 50 46 42 38 36 37 38 49 59 61 60 56 52 52 53 54 61 69 70 68 67 64 59 52 48 47 45 42 44
68 61 61 64 59 55 55 56 60 63 58 52 48 48 52 55 53 49 51 54 52 49 46 40 38 42 50 60 66 70 73 75 76 76 76 74 73 73 73 72 69 65 66 72 78 76 76 82 89 82 73 71 70 65 61 58 56 53 51 51 51 51 53 59 61 59 57 55 55 60 64 67 69 69 65 60 57 56 53 49 48 50 50 49 53
66 64 63 60 56 54 50 45 49 59 62 61 57 53 52 53 50 49 54 60 62 60 55 47 42 42 46 48 56 74 81 81 84 88 88 86 86 84 83 82 80 77 76 76 76 71 67 69 80 80 73 71 71 69 67 68 69 67 64 63 63 61 65 68 67 65 66 67 68 69 68 66 64 61 58 54 51 50 50 48 47 49 48 47 49
63 72 67 58 55 55 51 47 45 43 53 66 62 52 53 53 47 46 53 57 64 72 64 50 45 46 45 38 36 52 95 100 95 96 99 100 98 94 91 89 87 85 83 80 80 78 72 70 75 78 76 74 74 75 77 78 77 74 71 69 66 65 68 71 71 73 73 70 68 66 63 61 60 58 54 51 50 50 51 50 48 49 49 48 44